7 * 24
多渠道服务支持
NAVSTAR 80(USA 309)是美国于2020年11月5日发射的GPS导航卫星,隶属于美国第三代GPS全球定位系统组网卫星群,由洛克希德·马丁公司研制。它具备更优秀的定位精度与抗干扰能力,定位精度较前代提升三倍,抗干扰能力提升八倍,主要用于替换老旧在轨卫星,为全球提供高精度定位、导航与授时服务,强化GPS系统的军民两用服务能力,目前稳定运行在中地球轨道。
美国
(US)
| 数据来源 | 国际轨道数据 |
| 星历时间: | 2026-03-13T20:59:20+0800 14小时前 查看轨道信息 |
| 半长轴: | 26560.19km |
| 偏心率: | 0.0068705 |
| 轨道倾角: | 54.000° |
| 近地点辐角 | 204.478° |
| 升交点赤经 | 214.656° |
| 平近点角 | 155.469° |
| 近地点: | 19999.571km |
| 远地点: | 20364.535km |
| 周期: | 717.970分钟 |
| 每日圈数: | 2.005654 |